| time (UTC) | temp C | wind direction | speed KPH | gust KPH | rain 1hr cm | rain 24hr cm | rain mn cm | humidity % | barometer mb |
| 20260505004339 | 7 | 30 | 1.6 | 4.8 | 0.00 | 0.03 | 0.03 | 76 | 1014.0 |
| 20260505003326 | 7 | 110 | 1.6 | 9.7 | 0.00 | 0.03 | 0.03 | 77 | 1014.2 |
| 20260505002325 | 7 | 68 | 4.8 | 12.9 | 0.00 | 0.03 | 0.03 | 76 | 1014.2 |
| 20260505001325 | 8 | 132 | 3.2 | 11.3 | 0.03 | 0.03 | 0.03 | 70 | 1014.7 |
| 20260505000323 | 8 | 103 | 1.6 | 8.0 | 0.03 | 0.03 | 0.03 | 69 | 1014.8 |
| 20260504235807 | 8 | 222 | 4.8 | 9.7 | 0.03 | 0.03 | 0.03 | 67 | 1014.7 |
| 20260504234321 | 8 | 228 | 3.2 | 8.0 | 0.03 | 0.03 | 0.03 | 68 | 1014.5 |
| 20260504233319 | 8 | 266 | 1.6 | 8.0 | 0.03 | 0.03 | 0.03 | 69 | 1014.2 |
| 20260504232320 | 8 | 317 | 4.8 | 17.7 | 0.03 | 0.03 | 0.03 | 68 | 1014.2 |
| 20260504231319 | 9 | 308 | 4.8 | 16.1 | 0.00 | 0.00 | 0.00 | 62 | 1013.9 |
| 20260504230317 | 9 | 305 | 8.0 | 17.7 | 0.00 | 0.00 | 0.00 | 54 | 1013.9 |
| 20260504225319 | 10 | 301 | 3.2 | 17.7 | 0.00 | 0.00 | 0.00 | 54 | 1013.7 |
| 20260504224317 | 10 | 335 | 6.4 | 22.5 | 0.00 | 0.00 | 0.00 | 53 | 1013.4 |
| 20260504223316 | 10 | 280 | 11.3 | 22.5 | 0.00 | 0.00 | 0.00 | 54 | 1013.3 |
| 20260504222315 | 10 | 345 | 11.3 | 25.7 | 0.00 | 0.00 | 0.00 | 51 | 1012.9 |
| 20260504221750 | 11 | 311 | 11.3 | 27.4 | 0.00 | 0.00 | 0.00 | 49 | 1013.2 |
| 20260504220313 | 12 | 12 | 9.7 | 20.9 | 0.00 | 0.00 | 0.00 | 42 | 1013.0 |
| 20260504215313 | 13 | 321 | 3.2 | 11.3 | 0.00 | 0.00 | 0.00 | 38 | 1012.8 |
| 20260504214315 | 13 | 355 | 4.8 | 12.9 | 0.00 | 0.00 | 0.00 | 38 | 1012.8 |
| 20260504213313 | 14 | 29 | 1.6 | 4.8 | 0.00 | 0.00 | 0.00 | 36 | 1012.9 |
| 20260504212312 | 14 | 116 | 3.2 | 9.7 | 0.00 | 0.00 | 0.00 | 33 | 1012.4 |
| 20260504211310 | 14 | 109 | 3.2 | 8.0 | 0.00 | 0.00 | 0.00 | 34 | 1012.4 |
| 20260504210310 | 14 | 70 | 0.0 | 8.0 | 0.00 | 0.00 | 0.00 | 34 | 1012.7 |
| 20260504205309 | 13 | 314 | 1.6 | 8.0 | 0.00 | 0.00 | 0.00 | 35 | 1012.8 |
| 20260504204307 | 14 | 354 | 1.6 | 8.0 | 0.00 | 0.00 | 0.00 | 38 | 1013.0 |
| 20260504203301 | 13 | 47 | 3.2 | 12.9 | 0.00 | 0.00 | 0.00 | 38 | 1013.3 |
| 20260504202300 | 13 | 326 | 4.8 | 16.1 | 0.00 | 0.00 | 0.00 | 43 | 1013.7 |
| 20260504202238 | 12 | 280 | 8.0 | 25.7 | 0.00 | 0.00 | 0.00 | 44 | 1013.9 |
| 20260504200727 | 11 | 256 | 9.7 | 20.9 | 0.00 | 0.00 | 0.00 | 50 | 1013.9 |
| 20260504195241 | 11 | 319 | 11.3 | 22.5 | 0.00 | 0.00 | 0.00 | 54 | 1014.4 |
| 20260504194241 | 10 | 284 | 8.0 | 20.9 | 0.00 | 0.00 | 0.00 | 58 | 1014.8 |
| 20260504193242 | 11 | 311 | 11.3 | 37.0 | 0.00 | 0.00 | 0.00 | 48 | 1014.5 |
| 20260504192243 | 12 | 291 | 1.6 | 8.0 | 0.00 | 0.00 | 0.00 | 39 | 1014.4 |
| 20260504191242 | 12 | 31 | 4.8 | 14.5 | 0.00 | 0.00 | 0.00 | 39 | 1014.0 |
| 20260504190715 | 12 | 39 | 3.2 | 12.9 | 0.00 | 0.00 | 0.00 | 39 | 1013.9 |
| 20260504185242 | 12 | 89 | 4.8 | 14.5 | 0.00 | 0.00 | 0.00 | 40 | 1014.3 |
| 20260504184224 | 11 | 49 | 6.4 | 25.7 | 0.00 | 0.00 | 0.00 | 42 | 1014.3 |
| 20260504183657 | 12 | 84 | 9.7 | 24.1 | 0.00 | 0.00 | 0.00 | 38 | 1014.4 |
| 20260504182224 | 12 | 255 | 12.9 | 27.4 | 0.00 | 0.00 | 0.00 | 34 | 1014.2 |
| 20260504181224 | 13 | 263 | 8.0 | 24.1 | 0.00 | 0.00 | 0.00 | 32 | 1013.9 |
| 20260504180223 | 13 | 305 | 11.3 | 25.7 | 0.00 | 0.00 | 0.00 | 33 | 1013.8 |
| 20260504175220 | 13 | 295 | 8.0 | 20.9 | 0.00 | 0.00 | 0.00 | 34 | 1013.8 |
| 20260504174220 | 13 | 332 | 8.0 | 22.5 | 0.00 | 0.00 | 0.00 | 32 | 1013.8 |
| 20260504173208 | 13 | 338 | 8.0 | 24.1 | 0.00 | 0.00 | 0.00 | 32 | 1013.9 |
| 20260504172206 | 13 | 354 | 9.7 | 25.7 | 0.00 | 0.00 | 0.00 | 32 | 1014.3 |
| 20260504171205 | 13 | 345 | 14.5 | 32.2 | 0.00 | 0.00 | 0.00 | 32 | 1014.3 |
| 20260504170205 | 14 | 321 | 14.5 | 29.0 | 0.00 | 0.00 | 0.00 | 32 | 1014.3 |
| 20260504160159 | 13 | 250 | 4.8 | 17.7 | 0.00 | 0.00 | 0.00 | 35 | 1015.0 |
| 20260504150142 | 12 | 262 | 3.2 | 9.7 | 0.00 | 0.00 | 0.00 | 37 | 1015.3 |
| 20260504141136 | 10 | 247 | 1.6 | 8.0 | 0.00 | 0.00 | 0.00 | 38 | 1015.4 |
| 20260504140135 | 7 | 302 | 0.0 | 3.2 | 0.00 | 0.00 | 0.00 | 46 | 1015.3 |
| 20260504130124 | 4 | 321 | 0.0 | 3.2 | 0.00 | 0.00 | 0.00 | 50 | 1015.0 |
| 20260504120104 | 3 | 315 | 0.0 | 4.8 | 0.00 | 0.00 | 0.00 | 54 | 1014.9 |
| 20260504110510 | 3 | 319 | 0.0 | 6.4 | 0.00 | 0.00 | 0.00 | 50 | 1015.2 |
| 20260504081947 | 4 | 315 | 0.0 | 1.6 | 0.00 | 0.00 | 0.00 | 47 | 1015.8 |
| 20260504080946 | 5 | 315 | 0.0 | 4.8 | 0.00 | 0.00 | 0.00 | 46 | 1015.9 |
| 20260504070407 | 5 | 311 | 0.0 | 4.8 | 0.00 | 0.00 | 0.00 | 50 | 1016.6 |
| 20260504045831 | 7 | 353 | 0.0 | 1.6 | 0.00 | 0.00 | 0.00 | 47 | 1017.2 |
| 20260504044820 | 7 | 353 | 0.0 | 1.6 | 0.00 | 0.00 | 0.00 | 46 | 1017.3 |
| 20260504043818 | 7 | 274 | 0.0 | 1.6 | 0.00 | 0.00 | 0.00 | 47 | 1017.4 |
| 20260504042818 | 8 | 277 | 0.0 | 1.6 | 0.00 | 0.00 | 0.00 | 46 | 1017.4 |
| 20260504041819 | 9 | 277 | 0.0 | 1.6 | 0.00 | 0.00 | 0.00 | 43 | 1017.6 |
| 20260504040812 | 10 | 250 | 0.0 | 1.6 | 0.00 | 0.00 | 0.00 | 39 | 1017.6 |
| 20260504040247 | 10 | 266 | 1.6 | 4.8 | 0.00 | 0.00 | 0.00 | 38 | 1017.6 |
| 20260504034801 | 10 | 249 | 3.2 | 9.7 | 0.00 | 0.00 | 0.00 | 35 | 1017.7 |
| 20260504033802 | 10 | 285 | 0.0 | 3.2 | 0.00 | 0.00 | 0.00 | 36 | 1017.7 |
| 20260504032801 | 11 | 224 | 0.0 | 1.6 | 0.00 | 0.00 | 0.00 | 33 | 1017.6 |
| 20260504032236 | 11 | 268 | 0.0 | 4.8 | 0.00 | 0.00 | 0.00 | 35 | 1017.7 |
| 20260504030757 | 11 | 262 | 1.6 | 3.2 | 0.00 | 0.00 | 0.00 | 32 | 1017.7 |
| 20260504030235 | 11 | 271 | 1.6 | 3.2 | 0.00 | 0.00 | 0.00 | 34 | 1017.6 |
| 20260504024758 | 12 | 248 | 1.6 | 11.3 | 0.00 | 0.00 | 0.00 | 30 | 1017.6 |
| 20260504023759 | 11 | 250 | 4.8 | 11.3 | 0.00 | 0.00 | 0.00 | 33 | 1017.4 |
| 20260504022743 | 12 | 208 | 9.7 | 16.1 | 0.00 | 0.00 | 0.00 | 34 | 1017.6 |
| 20260504021727 | 12 | 231 | 9.7 | 16.1 | 0.00 | 0.00 | 0.00 | 34 | 1017.3 |
| 20260504020724 | 12 | 249 | 9.7 | 22.5 | 0.00 | 0.00 | 0.00 | 33 | 1017.4 |
| 20260504015723 | 12 | 301 | 6.4 | 17.7 | 0.00 | 0.00 | 0.00 | 31 | 1017.3 |
| 20260504014721 | 13 | 231 | 1.6 | 11.3 | 0.00 | 0.00 | 0.00 | 31 | 1017.3 |
| 20260504013723 | 13 | 242 | 1.6 | 8.0 | 0.00 | 0.00 | 0.00 | 30 | 1017.3 |
| 20260504012722 | 13 | 328 | 0.0 | 3.2 | 0.00 | 0.00 | 0.00 | 30 | 1017.2 |
| 20260504011714 | 13 | 72 | 1.6 | 8.0 | 0.00 | 0.00 | 0.00 | 30 | 1017.1 |
| 20260504010711 | 13 | 92 | 4.8 | 11.3 | 0.00 | 0.00 | 0.00 | 29 | 1017.2 |
| 20260504005710 | 14 | 142 | 3.2 | 9.7 | 0.00 | 0.00 | 0.00 | 27 | 1017.2 |
| 20260504004711 | 15 | 103 | 1.6 | 11.3 | 0.00 | 0.00 | 0.00 | 27 | 1017.1 |